If you wish to contribute or participate in the discussions about articles you are invited to join SKYbrary as a registered user

 Actions

Asturias

From SKYbrary Wiki

LEAS
Airport
ICAO: LEAS
Summary
Name Asturias
Region Europe
Territory Spain ES.gif
Location Asturias, Spain
Serving
Coordinates 43° 33' 34.42" N, 6° 1' 51.66" W
Runways
Designator Length Width Surface ROPS
11/29 2200 m7,217.848 ft
45 m147.638 ft
ASP yes/yes


METAR
Observation LEAS 212000Z 24005KT 210V270 9999 FEW028 SCT085 10/04 Q1002 NOSIG
Station Asturias / Aviles
Date/Time 21 November 2019 20:00:00
Wind direction 240°
Wind speed 05 kts
Lowest cloud amount few clouds
Temperature 10°C
Dew point 4°C
Humidity 66%
QNH 1002 hPa
Weather condition n/a

BS
Tag(s) Bird Strike
WX
Tag(s) Fog

Asturias Airport

ICAO: LEAS IATA: OVD

Description

International airport serving Asturias in northern spain.

Climatology

Temperate Marine climate/Oceanic climate (Köppen climate classification Cfb). Moderately cool summer and comparatively warm winter with a temperature range of only 14°C57.2 °F
287.15 K
516.87 °R
. Prevailing south-westerly winds from the Atlantic Ocean.

Maps

Terrain

Loading map...

Airport Layout

Loading map...


Accidents & Serious Incidents at or in vicinity of LEAS

None on SKYbrary